Lid_Strength_Index
7 9 10 8 7 8 8 9 10 9 7 9 9 9 8 7 7 7 7 7 6 6 5 6 6 6 7 8 9 10 11 10 10 10 11 11 12 11 12 12 13 13 13 13
9 10 8 7 8 8 9 10 10 8 8 10 10 10 9 8 8 7 7 7 7 6 6 7 7 7 8 9 9 10 11 11 11 10 10 11 11 11 11 12 13 13 14 14
10 9 8 8 9 10 10 10 10 10 8 10 11 12 10 9 8 8 7 7 7 7 7 7 8 8 9 10 10 10 10 10 11 10 11 12 12 13 14 13 13 13 14 14
9 8 9 9 10 9 12 9 9 10 11 13 11 15 11 10 9 9 8 8 7 7 7 7 8 9 10 10 10 10 10 11 10 11 12 13 14 14 13 12 13 14 14 14
10 9 10 11 10 9 11 11 11 10 11 12 12 14 12 11 12 11 10 8 7 6 8 8 9 9 9 10 10 10 11 11 11 11 12 13 13 13 12 13 14 14 14 14
10 10 9 9 11 10 10 11 11 12 12 16 12 13 13 12 12 10 9 8 8 8 8 8 8 9 9 9 10 11 11 12 11 11 12 12 13 13 14 14 15 14 14 15
10 10 9 10 11 11 11 11 14 15 16 16 11 13 12 10 10 9 9 8 8 8 8 8 9 10 10 10 11 11 12 13 12 12 12 12 13 13 13 14 14 15 15 15
12 13 10 10 10 9 12 11 14 18 17 15 13 16 13 9 8 9 9 8 8 9 9 9 9 10 10 11 11 12 12 13 13 13 13 13 13 14 14 14 15 15 16 16
13 13 11 10 10 9 12 14 10 13 15 16 14 12 10 10 10 10 10 10 9 9 9 9 9 10 11 11 12 12 13 13 13 14 13 13 14 15 15 15 15 16 16 17
11 14 12 15 12 12 12 11 14 13 18 18 16 14 13 12 12 11 11 10 9 9 9 9 9 10 10 11 11 12 12 13 13 13 14 15 15 15 15 16 17 17 17 17
9 10 13 14 15 14 15 15 15 14 13 17 18 16 12 12 11 10 10 10 10 8 8 9 10 10 10 10 11 12 12 13 13 14 14 15 16 16 16 17 17 17 18 18
11 11 14 13 11 12 12 12 13 16 17 15 16 16 11 10 10 9 10 10 8 8 8 8 9 10 11 11 11 12 12 13 13 14 15 15 16 17 18 19 18 18 19 19
12 14 16 15 15 15 15 14 14 12 13 16 17 16 10 10 10 10 10 9 9 9 9 9 9 10 10 11 11 12 12 13 13 14 15 17 18 19 19 19 19 19 19 19
11 14 15 17 15 13 15 15 14 14 16 16 16 14 12 11 10 9 9 8 8 9 9 9 9 9 10 11 12 13 13 13 14 15 17 18 19 19 19 19 20 20 20 20
12 16 14 14 13 13 14 14 14 15 15 16 15 14 12 11 10 10 9 9 9 9 9 9 10 9 9 12 12 13 13 14 15 17 18 19 19 19 20 20 20 20 20 21
12 16 15 16 14 14 16 14 14 14 14 14 14 15 11 10 10 10 9 9 9 9 9 9 9 10 11 13 13 14 14 15 17 18 19 19 20 20 21 21 21 21 21 21
14 15 16 18 14 15 17 15 14 13 13 13 15 12 10 10 9 9 8 8 9 8 9 9 9 10 11 12 14 14 15 16 18 19 19 20 21 22 21 21 22 23 22 22
14 15 15 17 15 21 15 11 11 13 12 11 11 10 9 9 8 8 7 8 8 8 9 9 9 9 10 12 13 14 16 18 19 19 21 21 21 22 22 23 23 23 23 22
11 13 16 18 18 15 13 12 12 13 13 10 10 10 9 8 8 9 8 7 8 7 7 8 8 9 11 13 14 16 18 19 19 20 21 22 22 23 23 24 24 23 23 22
11 12 14 16 19 20 14 11 9 10 15 10 10 10 9 9 11 10 7 8 8 8 10 11 12 13 13 15 16 19 20 20 20 21 22 22 22 24 24 24 24 23 23 23
15 14 16 16 18 15 10 9 9 15 14 9 9 9 9 9 9 7 8 9 10 10 13 14 15 16 16 18 19 20 20 20 20 21 22 23 24 24 24 24 24 24 24 24
14 16 16 16 18 19 8 9 12 9 7 7 7 7 8 8 8 8 7 8 11 13 15 15 16 17 19 18 19 19 20 19 21 22 24 24 25 24 25 26 26 25 25 25
15 11 13 13 13 8 7 8 6 6 7 7 7 7 7 8 8 8 9 9 12 13 16 16 17 19 19 18 18 19 20 22 23 24 25 26 26 25 26 27 26 25 25 24
14 11 15 15 11 11 10 9 8 6 8 8 7 7 7 8 8 9 11 11 13 15 16 17 19 20 20 18 18 19 22 23 24 25 25 26 26 26 26 25 24 24 24 23
14 13 15 15 12 11 10 9 9 9 8 8 7 7 7 8 9 9 9 10 11 14 17 18 19 19 20 19 19 22 22 24 25 25 25 26 25 26 25 24 24 23 23 22
13 13 15 15 12 12 11 10 10 11 11 10 10 9 9 8 9 9 9 9 10 14 17 18 19 19 20 20 23 23 23 23 24 25 25 25 26 25 25 25 26 23 23 22